Location: McNierney
(34.1937°N, 106.9061°W)
Time: 14:59:26
(UTC+00:00)

STARLINK-36128 - Pass Details

Date: 11 December 2025
Orbit: 483 x 483 km, 43.0° (Epoch: 19 January)

Event Time Altitude Azimuth Distance (km) Brightness Sun altitude
Exits shadow 11:03:24 - 111° (ESE) 1,834 6.0 -36.4°
Enters shadow 12:07:10 -59° 239° (WSW) 11,465 9.3 -23.4°
Maximum altitude 12:40:08 68° 148° (SSE) 520 2.6 -16.8°
